Location: Ocean City
(38.3360°N, 75.0850°W)
Time: 15:25:38
(UTC-04:00)

BEESAT 2 - Visible Passes

Search period start: 19 May 2019 00:00
Search period end: 29 May 2019 00:00
Orbit: 503 x 527 km, 64.9° (Epoch: 18 May)

Date Brightness Start Highest point End Pass type
(mag) Time Alt. Az. Time Alt. Az. Time Alt. Az.
19 May ? 04:12:17 10° N 04:15:37 25° NE 04:18:56 10° ESE visible
19 May ? 21:18:13 10° WNW 21:19:41 12° NW 21:21:09 10° NNW visible
20 May ? 03:56:25 10° N 03:59:46 25° NE 04:03:06 10° ESE visible
20 May ? 21:02:25 10° WNW 21:03:49 12° NW 21:05:14 10° NNW visible
21 May ? 03:40:32 10° N 03:43:54 26° NE 03:47:15 10° ESE visible
21 May ? 20:46:38 10° WNW 20:47:58 11° NW 20:49:18 10° NNW visible
22 May ? 03:24:38 10° N 03:28:02 26° NE 03:31:24 10° ESE visible
22 May ? 05:02:17 10° WNW 05:05:34 25° WSW 05:08:49 10° SSW visible
23 May ? 03:08:45 10° N 03:12:10 27° NE 03:15:34 10° ESE visible
23 May ? 04:46:27 10° WNW 04:49:41 24° WSW 04:52:55 10° SSW visible
24 May ? 02:52:52 10° N 02:56:18 27° NE 02:59:42 10° ESE visible
24 May ? 04:30:35 10° WNW 04:33:48 24° WSW 04:36:15 14° SSW visible
25 May ? 02:36:58 10° N 02:40:25 27° NE 02:42:58 15° ESE visible
25 May ? 04:14:44 10° WNW 04:17:47 23° WSW 04:17:47 23° WSW visible
26 May ? 02:21:05 10° N 02:24:33 28° NE 02:25:39 24° E visible
26 May ? 03:58:53 10° WNW 04:00:31 18° W 04:00:31 18° W visible
27 May ? 02:05:11 10° N 02:08:41 28° NE 02:08:53 28° ENE visible
27 May ? 03:43:01 10° WNW 03:43:47 14° WNW 03:43:47 14° WNW visible
28 May ? 01:49:18 10° N 01:52:26 28° NE 01:52:26 28° NE visible
28 May ? 03:27:09 10° WNW 03:27:20 11° WNW 03:27:20 11° WNW visible
